AEE5EF EFHK-LGAV

Flight info

Callsign AEE5EF
Flight time N/A
Altitude 36000
Route KOIVU Y123 LARTI DCT NAVOT DCT LUTAL P870 BERIL/N0448F350 DCT SUWGI/N0448F360 DCT TOXAR DCT ROBTU/N0445F370 DCT KENIN DCT BADOR DCT RUPUG DCT TIXIP DCT LOMOS/N0446F360 DCT BENGO DCT LETNI/N0448F370 DCT MAKED UL617 SKP UM749 ROPOX
Aircraft A321/M-SDE3FGHIRWY/LB1

Departure

Time 2026-04-24 14:53
Airport Helsinki Vantaa Airport (EFHK)

Arrival

Time N/A
Airport Athens Eleftherios Venizelos International Airport (LGAV)
Time Latitude Longitude Altitude Speed Heading
2026-04-24 13:45 60.31840 24.96467 166 ft 0 kts 137°
2026-04-24 14:44 60.31842 24.96464 167 ft 2 kts 137°
2026-04-24 14:44 60.31860 24.96428 167 ft 3 kts 137°
2026-04-24 14:44 60.31877 24.96401 167 ft 4 kts 163°
2026-04-24 14:45 60.31899 24.96404 167 ft 4 kts 221°
2026-04-24 14:45 60.31916 24.96440 167 ft 3 kts 227°
2026-04-24 14:45 60.31918 24.96445 167 ft 0 kts 227°
2026-04-24 14:48 60.31917 24.96442 167 ft 2 kts 227°
2026-04-24 14:48 60.31888 24.96381 167 ft 10 kts 227°
2026-04-24 14:48 60.31855 24.96235 167 ft 12 kts 259°
2026-04-24 14:48 60.31796 24.96051 167 ft 20 kts 227°
2026-04-24 14:49 60.31689 24.95814 167 ft 23 kts 227°
2026-04-24 14:49 60.31639 24.95579 167 ft 20 kts 242°
2026-04-24 14:49 60.31533 24.95330 167 ft 26 kts 227°
2026-04-24 14:49 60.31433 24.95084 167 ft 18 kts 256°
2026-04-24 14:50 60.31414 24.94842 166 ft 22 kts 228°
2026-04-24 14:50 60.31301 24.94579 160 ft 26 kts 229°
2026-04-24 14:50 60.31181 24.94309 159 ft 26 kts 228°
2026-04-24 14:50 60.31060 24.94037 158 ft 23 kts 226°
2026-04-24 14:51 60.30982 24.93811 160 ft 17 kts 268°
2026-04-24 14:51 60.31032 24.93647 159 ft 2 kts 316°
2026-04-24 14:51 60.31052 24.93611 159 ft 6 kts 318°
2026-04-24 14:51 60.31090 24.93593 158 ft 6 kts 19°
2026-04-24 14:52 60.31136 24.93668 158 ft 16 kts 43°
2026-04-24 14:52 60.31390 24.94215 161 ft 89 kts 48°
2026-04-24 14:52 60.31952 24.95451 173 ft 148 kts 47°
2026-04-24 14:52 60.32700 24.97137 602 ft 160 kts 43°
2026-04-24 14:53 60.33444 24.98805 1387 ft 160 kts 42°
2026-04-24 14:53 60.34200 25.00463 2094 ft 164 kts 42°
2026-04-24 14:53 60.35012 25.02259 2475 ft 183 kts 47°
2026-04-24 14:53 60.35444 25.04850 2749 ft 215 kts 91°
2026-04-24 14:54 60.34796 25.07647 3226 ft 232 kts 136°
2026-04-24 14:54 60.33344 25.08975 3902 ft 233 kts 180°
2026-04-24 14:54 60.31747 25.08624 4648 ft 232 kts 197°
2026-04-24 14:54 60.30169 25.07855 5400 ft 234 kts 197°
2026-04-24 14:55 60.29120 25.07335 5893 ft 235 kts 197°
2026-04-24 14:55 60.26895 25.06211 6452 ft 261 kts 197°
2026-04-24 14:55 60.25062 25.05272 6804 ft 280 kts 197°
2026-04-24 14:55 60.23143 25.04290 7418 ft 288 kts 197°
2026-04-24 14:56 60.21184 25.03292 8093 ft 293 kts 197°
2026-04-24 14:56 60.19184 25.02278 8776 ft 299 kts 198°
2026-04-24 14:56 60.17150 25.01249 9460 ft 304 kts 198°
2026-04-24 14:56 60.15072 25.00200 9977 ft 315 kts 198°
2026-04-24 14:57 60.12872 24.99076 10118 ft 337 kts 198°
2026-04-24 14:57 60.10530 24.97879 10249 ft 358 kts 198°
2026-04-24 14:57 60.08080 24.96633 10384 ft 377 kts 197°
2026-04-24 14:57 60.05500 24.95331 10776 ft 386 kts 197°
2026-04-24 14:58 60.02873 24.94014 11307 ft 391 kts 198°
2026-04-24 14:58 60.00220 24.92689 11858 ft 396 kts 198°
2026-04-24 14:58 59.97539 24.91354 12404 ft 400 kts 198°
2026-04-24 14:58 59.94824 24.90003 12938 ft 404 kts 198°
2026-04-24 14:59 59.92080 24.88634 13465 ft 408 kts 199°
2026-04-24 14:59 59.89308 24.87250 13938 ft 412 kts 199°
2026-04-24 14:59 59.86517 24.85853 14401 ft 416 kts 199°
2026-04-24 14:59 59.83719 24.84452 14895 ft 419 kts 199°
2026-04-24 15:00 59.80889 24.83040 15400 ft 421 kts 199°
2026-04-24 15:00 59.78034 24.81620 15898 ft 424 kts 199°
2026-04-24 15:00 59.75162 24.80195 16367 ft 427 kts 199°
2026-04-24 15:00 59.72274 24.78769 16833 ft 430 kts 199°
2026-04-24 15:01 59.69363 24.77335 17295 ft 432 kts 199°
2026-04-24 15:01 59.66436 24.75893 17760 ft 435 kts 199°
2026-04-24 15:01 59.63491 24.74441 18188 ft 437 kts 199°
2026-04-24 15:01 59.60530 24.72984 18565 ft 440 kts 199°
2026-04-24 15:02 59.58559 24.72021 18820 ft 441 kts 199°
2026-04-24 15:02 59.55569 24.70561 19185 ft 443 kts 199°
2026-04-24 15:02 59.52569 24.69092 19603 ft 445 kts 199°
2026-04-24 15:02 59.48584 24.67146 20138 ft 448 kts 199°
2026-04-24 15:03 59.46537 24.66149 20404 ft 449 kts 199°
2026-04-24 15:03 59.43490 24.64667 20799 ft 452 kts 199°
2026-04-24 15:03 59.40437 24.63185 21181 ft 454 kts 199°
2026-04-24 15:03 59.37362 24.61701 21563 ft 456 kts 199°
2026-04-24 15:04 59.34307 24.60226 21937 ft 459 kts 199°
2026-04-24 15:04 59.31150 24.58702 22259 ft 463 kts 199°
2026-04-24 15:04 59.28013 24.57194 22611 ft 466 kts 199°
2026-04-24 15:04 59.24896 24.55701 22963 ft 468 kts 199°
2026-04-24 15:05 59.21725 24.54184 23321 ft 470 kts 199°
2026-04-24 15:05 59.18539 24.52666 23623 ft 473 kts 199°
2026-04-24 15:05 59.15339 24.51143 23930 ft 474 kts 199°
2026-04-24 15:05 59.12130 24.49607 24254 ft 476 kts 199°
2026-04-24 15:06 59.08910 24.48067 24560 ft 477 kts 199°
2026-04-24 15:06 59.05674 24.46529 24874 ft 479 kts 199°
2026-04-24 15:06 59.02438 24.44998 25184 ft 480 kts 199°
2026-04-24 15:06 58.99187 24.43465 25492 ft 481 kts 199°
2026-04-24 15:07 58.95926 24.41925 25833 ft 482 kts 199°
2026-04-24 15:07 58.92666 24.40386 26140 ft 483 kts 199°
2026-04-24 15:07 58.89396 24.38847 26431 ft 484 kts 199°
2026-04-24 15:07 58.86114 24.37308 26704 ft 486 kts 198°
2026-04-24 15:08 58.82828 24.35771 26961 ft 487 kts 198°
2026-04-24 15:08 58.79532 24.34219 27209 ft 488 kts 198°
2026-04-24 15:08 58.76226 24.32663 27451 ft 490 kts 198°
2026-04-24 15:08 58.72912 24.31110 27646 ft 491 kts 198°
2026-04-24 15:09 58.69588 24.29573 27919 ft 490 kts 198°
2026-04-24 15:09 58.66281 24.28052 28266 ft 489 kts 198°
2026-04-24 15:09 58.62980 24.26538 28597 ft 487 kts 198°
2026-04-24 15:09 58.59684 24.25028 28910 ft 486 kts 198°
2026-04-24 15:10 58.56442 24.23545 29226 ft 485 kts 198°
2026-04-24 15:10 58.53119 24.22018 29540 ft 484 kts 198°
2026-04-24 15:10 58.49899 24.20534 29862 ft 483 kts 198°
2026-04-24 15:10 58.46640 24.19034 30129 ft 482 kts 198°
2026-04-24 15:11 58.43379 24.17531 30366 ft 481 kts 198°
2026-04-24 15:11 58.40136 24.16037 30641 ft 479 kts 198°
2026-04-24 15:11 58.36897 24.14548 30900 ft 478 kts 197°
2026-04-24 15:11 58.33660 24.13068 31152 ft 478 kts 197°
2026-04-24 15:12 58.30432 24.11603 31387 ft 478 kts 197°
2026-04-24 15:12 58.23967 24.08698 31874 ft 477 kts 197°
2026-04-24 15:12 58.20741 24.07249 32113 ft 476 kts 197°
2026-04-24 15:13 58.17518 24.05797 32324 ft 476 kts 197°
2026-04-24 15:13 58.14306 24.04351 32618 ft 473 kts 197°
2026-04-24 15:13 58.11108 24.02912 32917 ft 471 kts 197°
2026-04-24 15:13 58.07913 24.01470 33095 ft 473 kts 197°
2026-04-24 15:14 58.04710 24.00026 33249 ft 474 kts 197°
2026-04-24 15:14 58.01499 23.98581 33451 ft 474 kts 197°
2026-04-24 15:14 57.98284 23.97139 33682 ft 474 kts 197°
2026-04-24 15:14 57.95084 23.95717 33882 ft 474 kts 197°
2026-04-24 15:15 57.91862 23.94299 34076 ft 474 kts 197°
2026-04-24 15:15 57.88700 23.92910 34232 ft 473 kts 196°
2026-04-24 15:15 57.85499 23.91500 34443 ft 472 kts 197°
2026-04-24 15:15 57.82303 23.90087 34627 ft 472 kts 197°
2026-04-24 15:16 57.79101 23.88672 34781 ft 472 kts 197°
2026-04-24 15:16 57.75902 23.87261 34834 ft 473 kts 197°
2026-04-24 15:16 57.69483 23.84532 34835 ft 473 kts 194°
2026-04-24 15:17 57.62990 23.82362 34835 ft 474 kts 192°
2026-04-24 15:17 57.56485 23.80428 34841 ft 473 kts 192°
2026-04-24 15:18 57.49999 23.78429 34841 ft 472 kts 193°
2026-04-24 15:18 57.43527 23.76321 34852 ft 472 kts 193°
2026-04-24 15:19 57.37059 23.74192 34854 ft 473 kts 193°
2026-04-24 15:19 57.30578 23.72106 34856 ft 472 kts 193°
2026-04-24 15:20 57.24103 23.70038 34872 ft 472 kts 193°
2026-04-24 15:20 57.17641 23.67972 34876 ft 471 kts 193°
2026-04-24 15:21 57.11184 23.65916 34874 ft 471 kts 193°
2026-04-24 15:21 57.04727 23.63877 34863 ft 470 kts 192°
2026-04-24 15:22 56.98276 23.61852 34871 ft 470 kts 192°
2026-04-24 15:23 56.88661 23.58821 34883 ft 469 kts 193°
2026-04-24 15:23 56.79011 23.55788 34876 ft 469 kts 192°
2026-04-24 15:25 56.64059 23.51165 34874 ft 469 kts 193°
2026-04-24 15:26 56.46966 23.45906 34871 ft 468 kts 193°
2026-04-24 15:27 56.27671 23.40395 34864 ft 468 kts 190°
2026-04-24 15:29 56.08245 23.35893 34886 ft 470 kts 191°
2026-04-24 15:31 55.85533 23.30449 34874 ft 471 kts 191°
2026-04-24 15:33 55.59530 23.24334 34859 ft 473 kts 191°
2026-04-24 15:34 55.43197 23.20549 34875 ft 474 kts 191°
2026-04-24 15:35 55.26838 23.16761 34865 ft 475 kts 191°
2026-04-24 15:36 55.20287 23.15269 34868 ft 475 kts 191°
2026-04-24 15:36 55.10449 23.13020 34868 ft 476 kts 191°
2026-04-24 15:37 55.03882 23.11511 34878 ft 476 kts 191°
2026-04-24 15:37 54.97305 23.10024 34876 ft 477 kts 191°
2026-04-24 15:38 54.90768 23.08554 34884 ft 477 kts 191°
2026-04-24 15:38 54.84187 23.07075 34868 ft 478 kts 191°
2026-04-24 15:39 54.77577 23.05590 34874 ft 479 kts 191°
2026-04-24 15:39 54.70965 23.04112 34884 ft 479 kts 191°
2026-04-24 15:40 54.64358 23.02638 34882 ft 479 kts 191°
2026-04-24 15:40 54.57741 23.01170 34867 ft 480 kts 191°
2026-04-24 15:41 54.51111 22.99703 34878 ft 480 kts 191°
2026-04-24 15:41 54.44476 22.98226 34887 ft 481 kts 191°
2026-04-24 15:42 54.37829 22.96768 34904 ft 482 kts 191°
2026-04-24 15:42 54.31182 22.95307 34899 ft 482 kts 191°
2026-04-24 15:43 54.24557 22.93845 34891 ft 484 kts 191°
2026-04-24 15:43 54.17877 22.92384 34911 ft 484 kts 191°
2026-04-24 15:44 54.11179 22.90937 34903 ft 485 kts 191°
2026-04-24 15:44 54.04485 22.89484 34885 ft 485 kts 192°
2026-04-24 15:45 53.97802 22.87796 34902 ft 485 kts 193°
2026-04-24 15:45 53.91132 22.85994 34904 ft 486 kts 193°
2026-04-24 15:46 53.84445 22.84240 34917 ft 486 kts 193°
2026-04-24 15:46 53.77752 22.82549 34920 ft 486 kts 193°
2026-04-24 15:47 53.71061 22.80884 34924 ft 486 kts 193°
2026-04-24 15:47 53.64369 22.79211 34925 ft 486 kts 193°
2026-04-24 15:48 53.57677 22.77533 34903 ft 486 kts 193°
2026-04-24 15:48 53.50991 22.75843 34915 ft 486 kts 193°
2026-04-24 15:49 53.44307 22.74159 34923 ft 486 kts 193°
2026-04-24 15:49 53.37618 22.72497 34938 ft 486 kts 193°
2026-04-24 15:50 53.30967 22.70865 34903 ft 487 kts 193°
2026-04-24 15:50 53.24262 22.69219 34908 ft 487 kts 193°
2026-04-24 15:51 53.17547 22.67558 34918 ft 488 kts 193°
2026-04-24 15:51 53.10829 22.65902 34923 ft 488 kts 193°
2026-04-24 15:52 53.04096 22.64252 34909 ft 489 kts 193°
2026-04-24 15:52 52.97360 22.62613 34924 ft 489 kts 193°
2026-04-24 15:53 52.91762 22.61250 34927 ft 490 kts 193°
2026-04-24 15:53 52.85022 22.59604 34938 ft 490 kts 193°
2026-04-24 15:54 52.78270 22.57971 34929 ft 490 kts 193°
2026-04-24 15:54 52.71517 22.56326 34943 ft 491 kts 193°
2026-04-24 15:55 52.64757 22.54701 34951 ft 491 kts 193°
2026-04-24 15:55 52.57980 22.53122 34928 ft 492 kts 192°
2026-04-24 15:56 52.51231 22.51708 34948 ft 493 kts 192°
2026-04-24 15:56 52.44424 22.50337 34949 ft 493 kts 192°
2026-04-24 15:57 52.37612 22.48932 34952 ft 493 kts 192°
2026-04-24 15:57 52.30806 22.47505 34933 ft 493 kts 193°
2026-04-24 15:58 52.23995 22.46069 34938 ft 494 kts 193°
2026-04-24 15:58 52.17175 22.44648 34948 ft 494 kts 192°
2026-04-24 15:59 52.10345 22.43254 34950 ft 495 kts 192°
2026-04-24 15:59 52.03509 22.41858 34933 ft 495 kts 193°
2026-04-24 16:00 51.96669 22.40451 34945 ft 496 kts 193°
2026-04-24 16:00 51.89871 22.39058 34958 ft 496 kts 193°
2026-04-24 16:01 51.83019 22.37660 34938 ft 496 kts 192°
2026-04-24 16:01 51.76167 22.36259 34958 ft 496 kts 192°
2026-04-24 16:02 51.69316 22.34870 34976 ft 496 kts 192°
2026-04-24 16:02 51.62465 22.33499 34972 ft 496 kts 192°
2026-04-24 16:03 51.55622 22.32113 34952 ft 496 kts 192°
2026-04-24 16:03 51.48769 22.30731 34962 ft 496 kts 192°
2026-04-24 16:04 51.41918 22.29363 34967 ft 496 kts 192°
2026-04-24 16:04 51.35123 22.28006 34970 ft 496 kts 192°
2026-04-24 16:05 51.24848 22.25966 34976 ft 496 kts 192°
2026-04-24 16:06 51.14579 22.23933 34974 ft 495 kts 192°
2026-04-24 16:07 51.04319 22.21909 34958 ft 495 kts 192°
2026-04-24 16:07 50.94053 22.19889 34967 ft 495 kts 192°
2026-04-24 16:08 50.83784 22.17884 34963 ft 496 kts 191°
2026-04-24 16:09 50.73513 22.15897 34981 ft 496 kts 191°
2026-04-24 16:09 50.66658 22.14561 34986 ft 496 kts 191°
2026-04-24 16:11 50.49563 22.11263 34986 ft 497 kts 191°
2026-04-24 16:11 50.42697 22.09942 34994 ft 497 kts 191°
2026-04-24 16:12 50.32396 22.07974 34979 ft 497 kts 191°
2026-04-24 16:13 50.22079 22.06014 34986 ft 498 kts 191°
2026-04-24 16:14 50.08309 22.03401 34992 ft 499 kts 190°
2026-04-24 16:14 49.97962 22.01458 34999 ft 499 kts 190°
2026-04-24 16:15 49.87613 21.99519 35002 ft 499 kts 190°
2026-04-24 16:16 49.77311 21.97596 35010 ft 499 kts 190°
2026-04-24 16:17 49.60160 21.94415 35016 ft 500 kts 190°
2026-04-24 16:18 49.46336 21.91860 35007 ft 500 kts 190°
2026-04-24 16:19 49.35962 21.89962 35049 ft 500 kts 189°
2026-04-24 16:20 49.25602 21.88065 35037 ft 500 kts 189°
2026-04-24 16:20 49.15234 21.86165 35023 ft 500 kts 189°
2026-04-24 16:21 49.04858 21.84286 35025 ft 501 kts 189°
2026-04-24 16:22 48.97980 21.83043 35038 ft 501 kts 189°
2026-04-24 16:22 48.87560 21.81949 35022 ft 503 kts 175°
2026-04-24 16:23 48.80616 21.83401 35028 ft 504 kts 173°
2026-04-24 16:24 48.70199 21.85586 35023 ft 503 kts 173°
2026-04-24 16:24 48.63262 21.87037 35026 ft 503 kts 172°
2026-04-24 16:25 48.56330 21.88498 35026 ft 503 kts 172°
2026-04-24 16:25 48.49403 21.89963 35017 ft 503 kts 172°
2026-04-24 16:26 48.39013 21.92140 35019 ft 502 kts 172°
2026-04-24 16:27 48.28685 21.94394 35002 ft 502 kts 171°
2026-04-24 16:27 48.21796 21.96041 35016 ft 501 kts 171°
2026-04-24 16:28 48.14911 21.97677 35012 ft 501 kts 171°
2026-04-24 16:28 48.04582 22.00046 34989 ft 501 kts 171°
2026-04-24 16:29 47.97695 22.01617 34998 ft 500 kts 171°
2026-04-24 16:30 47.83937 22.04771 35007 ft 500 kts 171°
2026-04-24 16:30 47.77057 22.06350 35020 ft 500 kts 171°
2026-04-24 16:31 47.70185 22.07915 35016 ft 500 kts 171°
2026-04-24 16:31 47.63360 22.09455 35015 ft 500 kts 171°
2026-04-24 16:32 47.56480 22.11007 35002 ft 499 kts 171°
2026-04-24 16:32 47.49608 22.12544 35007 ft 499 kts 171°
2026-04-24 16:33 47.42735 22.14044 35011 ft 499 kts 171°
2026-04-24 16:33 47.35861 22.15535 35022 ft 499 kts 171°
2026-04-24 16:34 47.28989 22.17038 35011 ft 499 kts 171°
2026-04-24 16:34 47.22121 22.18546 35014 ft 499 kts 171°
2026-04-24 16:35 47.15261 22.20041 35012 ft 499 kts 171°
2026-04-24 16:35 47.08402 22.21530 35010 ft 498 kts 171°
2026-04-24 16:36 47.01543 22.23022 35025 ft 498 kts 171°
2026-04-24 16:36 46.94695 22.24506 35038 ft 497 kts 171°
2026-04-24 16:37 46.88043 22.26403 35024 ft 496 kts 164°
2026-04-24 16:37 46.81360 22.28899 35009 ft 495 kts 164°
2026-04-24 16:38 46.74687 22.31372 35015 ft 494 kts 164°
2026-04-24 16:38 46.68067 22.33829 35024 ft 494 kts 164°
2026-04-24 16:39 46.61416 22.36305 35020 ft 493 kts 164°
2026-04-24 16:39 46.54765 22.38771 35040 ft 493 kts 164°
2026-04-24 16:40 46.48234 22.41183 35029 ft 493 kts 164°
2026-04-24 16:40 46.41586 22.43625 35028 ft 493 kts 164°
2026-04-24 16:41 46.34944 22.46064 35022 ft 492 kts 164°
2026-04-24 16:41 46.28301 22.48501 35027 ft 492 kts 164°
2026-04-24 16:42 46.21666 22.50928 35041 ft 492 kts 164°
2026-04-24 16:42 46.15111 22.53318 35022 ft 492 kts 164°
2026-04-24 16:43 46.08545 22.55704 35024 ft 491 kts 164°
2026-04-24 16:43 46.01928 22.58108 35023 ft 490 kts 164°
2026-04-24 16:44 45.95316 22.60502 35025 ft 490 kts 164°
2026-04-24 16:44 45.88751 22.62870 35020 ft 489 kts 164°
2026-04-24 16:45 45.82144 22.65228 35034 ft 489 kts 165°
2026-04-24 16:45 45.75499 22.67357 35028 ft 489 kts 166°
2026-04-24 16:46 45.68827 22.69348 35017 ft 490 kts 166°
2026-04-24 16:46 45.62165 22.71358 35025 ft 489 kts 166°
2026-04-24 16:47 45.56719 22.73045 35028 ft 489 kts 166°
2026-04-24 16:47 45.50077 22.75113 35045 ft 489 kts 166°
2026-04-24 16:48 45.43431 22.77168 35030 ft 488 kts 166°
2026-04-24 16:48 45.36787 22.79201 35019 ft 488 kts 166°
2026-04-24 16:49 45.30149 22.81230 35013 ft 487 kts 166°
2026-04-24 16:49 45.23525 22.83255 34994 ft 487 kts 165°
2026-04-24 16:50 45.16911 22.85268 35001 ft 486 kts 165°
2026-04-24 16:50 45.10322 22.87275 34999 ft 485 kts 165°
2026-04-24 16:51 45.03724 22.89279 34980 ft 485 kts 165°
2026-04-24 16:51 44.97175 22.91259 34976 ft 484 kts 165°
2026-04-24 16:52 44.90707 22.93206 34969 ft 484 kts 165°
2026-04-24 16:52 44.84126 22.95186 34966 ft 484 kts 165°
2026-04-24 16:53 44.77547 22.97172 34960 ft 483 kts 165°
2026-04-24 16:53 44.70979 22.99149 34968 ft 483 kts 165°
2026-04-24 16:54 44.64416 23.01115 34967 ft 482 kts 165°
2026-04-24 16:54 44.57848 23.03069 34955 ft 482 kts 165°
2026-04-24 16:55 44.51290 23.05026 34968 ft 482 kts 165°
2026-04-24 16:55 44.44739 23.06972 34972 ft 481 kts 165°
2026-04-24 16:56 44.38192 23.08906 34978 ft 480 kts 166°
2026-04-24 16:56 44.31697 23.10825 34975 ft 480 kts 165°
2026-04-24 16:57 44.25164 23.12758 34973 ft 480 kts 165°
2026-04-24 16:57 44.18624 23.14690 34974 ft 480 kts 165°
2026-04-24 16:58 44.12085 23.16611 34970 ft 480 kts 165°
2026-04-24 16:58 44.05554 23.18523 34996 ft 480 kts 165°
2026-04-24 16:59 43.99022 23.20428 34989 ft 479 kts 166°
2026-04-24 17:00 43.89233 23.23281 34983 ft 479 kts 165°
2026-04-24 17:00 43.82611 23.24380 34981 ft 483 kts 180°
2026-04-24 17:00 43.79265 23.23961 34982 ft 484 kts 189°
2026-04-24 17:01 43.69330 23.21374 34983 ft 484 kts 189°
2026-04-24 17:02 43.59390 23.18813 34997 ft 485 kts 189°
2026-04-24 17:02 43.52757 23.17110 34990 ft 484 kts 189°
2026-04-24 17:03 43.42825 23.14562 35004 ft 484 kts 189°
2026-04-24 17:04 43.36206 23.12869 35004 ft 484 kts 189°
2026-04-24 17:04 43.26287 23.10335 35007 ft 483 kts 188°
2026-04-24 17:05 43.19674 23.08657 35011 ft 483 kts 188°
2026-04-24 17:06 43.09764 23.06144 35011 ft 482 kts 188°
2026-04-24 17:06 42.99915 23.03644 35010 ft 482 kts 188°
2026-04-24 17:07 42.93328 23.01990 35023 ft 481 kts 188°
2026-04-24 17:08 42.80162 22.98682 35014 ft 481 kts 188°
2026-04-24 17:08 42.73589 22.96983 35012 ft 481 kts 192°
2026-04-24 17:09 42.61162 22.90214 35011 ft 484 kts 201°
2026-04-24 17:10 42.48785 22.83058 35008 ft 483 kts 201°
2026-04-24 17:12 42.24071 22.68812 35009 ft 483 kts 201°